USA 153

Last updated on Fri Dec 19 2025 00:02:48 GMT+0000 (Coordinated Universal Time)

1 26575U 00065A 25352.49087455 -.00000310 00000+0 00000+0 0 9998 2 26575 11.3126 36.8875 0002591 237.7069 123.9266 1.00268690 31127
UTC large
Height (km)
Speed (km/s)
/
Latitude / Longitude
Inclination (degrees)
Orbital Period (minutes)
Azimuth
Elevation
Range (km)
Doppler Factor

Next 0 passes for location: London (51.5072 / 0.1276)

Sorry there are no passes over London.